カタログに戻る

GOES 5 AKM

運用中MEO
NORAD 33521·ROCKET BODY·🇺🇸 United States

打ち上げ May 22, 1981 から Cape Canaveral Space Force Station

Loading…

次のパス (今後24時間)

TLE

最新Source: Space-Track

元期: Sep 14, 2026, 07:55 UTC

1 33521U 81049D   26257.33028868 -.00000220  00000-0  00000-0 0  9991
2 33521  16.1033 317.1062 1708346 145.8697 266.0391  0.82272744 59332

AllMySatでGOES 5 AKMをリアルタイム追跡

Download on the App Store